User: anonymous   Login
Location: ??????
(42.0089°N, 44.3281°E)
Time: 02:44:13
(UTC+00:00)
Language:

NOSS 8 (H) - Orbit

View from above orbital plane
View from above orbital plane
View from above satellite
View from above satellite

Ground track
Ground track

The orbit data is extracted from the following two-line orbital elements,

1 18025U 87043H   22018.55553505  .00002830  00000-0  20974-3 0  9992
2 18025  63.2968  51.7925 0953000  71.3369 298.8619 13.47661840131689
Epoch (UTC): 18 January 2022 13:19:58
Eccentricity: 0.0953000
inclination: 63.2968°
perigee height: 370 km
apogee height: 1792 km
right ascension of ascending node: 51.7925°
argument of perigee: 71.3369°
revolutions per day: 13.47661840
mean anomaly at epoch: 298.8619°
orbit number at epoch: 13168

The dashed part of the orbit path shows where the satellite is in the earth's shadow,  

DLR